Time,TemperatureF,DewpointF,PressureIn,WindDirection,WindDirectionDegrees,WindSpeedMPH,WindSpeedGustMPH,Humidity,HourlyPrecipIn,Conditions,Clouds,dailyrainin,SoftwareType,DateUTC
2013-01-02 00:12:00,20.4,17.0,30.66,ESE,120,0.0,0.0,87,0.00,,,0.00,weatherlink.com 1.10,2013-01-02 08:12:00,
2013-01-02 00:27:00,20.4,17.0,30.66,NNE,32,0.0,0.0,87,0.00,,,0.00,weatherlink.com 1.10,2013-01-02 08:27:00,
2013-01-02 00:42:00,20.4,17.0,30.65,NNE,27,0.0,1.0,87,0.00,,,0.00,weatherlink.com 1.10,2013-01-02 08:42:00,
2013-01-02 00:57:00,20.3,17.0,30.65,SW,235,0.0,0.0,87,0.00,,,0.00,weatherlink.com 1.10,2013-01-02 08:57:00,
2013-01-02 01:12:00,20.3,17.0,30.65,NNE,15,0.0,1.0,87,0.00,,,0.00,weatherlink.com 1.10,2013-01-02 09:12:00,
2013-01-02 01:27:00,20.4,17.0,30.65,SSE,158,0.0,0.0,87,0.00,,,0.00,weatherlink.com 1.10,2013-01-02 09:27:00,
2013-01-02 01:42:00,20.3,17.0,30.66,SSE,165,0.0,0.0,87,0.00,,,0.00,weatherlink.com 1.10,2013-01-02 09:42:00,
2013-01-02 01:57:00,20.2,17.0,30.66,SSE,163,0.0,0.0,87,0.00,,,0.00,weatherlink.com 1.10,2013-01-02 09:57:00,
2013-01-02 02:12:00,20.2,17.0,30.66,SSE,163,0.0,0.0,87,0.00,,,0.00,weatherlink.com 1.10,2013-01-02 10:12:00,
2013-01-02 02:27:00,20.2,17.0,30.66,SE,135,0.0,1.0,87,0.00,,,0.00,weatherlink.com 1.10,2013-01-02 10:27:00,
2013-01-02 02:42:00,20.2,17.0,30.66,SE,135,0.0,0.0,87,0.00,,,0.00,weatherlink.com 1.10,2013-01-02 10:42:00,
2013-01-02 02:57:00,20.2,17.0,30.66,SE,135,0.0,0.0,87,0.00,,,0.00,weatherlink.com 1.10,2013-01-02 10:57:00,
2013-01-02 03:12:00,20.4,17.0,30.66,East,94,0.0,1.0,87,0.00,,,0.00,weatherlink.com 1.10,2013-01-02 11:12:00,
2013-01-02 03:27:00,20.3,17.0,30.66,East,95,0.0,0.0,87,0.00,,,0.00,weatherlink.com 1.10,2013-01-02 11:27:00,
2013-01-02 03:42:00,20.2,17.0,30.66,East,95,0.0,0.0,87,0.00,,,0.00,weatherlink.com 1.10,2013-01-02 11:42:00,
2013-01-02 03:57:00,20.2,17.0,30.66,South,176,0.0,0.0,87,0.00,,,0.00,weatherlink.com 1.10,2013-01-02 11:57:00,
2013-01-02 04:12:00,20.1,17.0,30.65,SSE,149,0.0,1.0,87,0.00,,,0.00,weatherlink.com 1.10,2013-01-02 12:12:00,
2013-01-02 04:27:00,20.1,17.0,30.65,SE,139,0.0,1.0,87,0.00,,,0.00,weatherlink.com 1.10,2013-01-02 12:27:00,
2013-01-02 04:42:00,20.1,17.0,30.65,SE,139,0.0,0.0,87,0.00,,,0.00,weatherlink.com 1.10,2013-01-02 12:42:00,
2013-01-02 04:57:00,20.3,17.0,30.64,East,94,0.0,1.0,87,0.00,,,0.00,weatherlink.com 1.10,2013-01-02 12:57:00,
2013-01-02 05:12:00,20.3,17.0,30.64,East,101,0.0,1.0,87,0.00,,,0.00,weatherlink.com 1.10,2013-01-02 13:12:00,
2013-01-02 05:28:00,20.3,17.0,30.64,SE,146,0.0,1.0,87,0.00,,,0.00,weatherlink.com 1.10,2013-01-02 13:28:00,
2013-01-02 05:43:00,20.4,17.0,30.63,SE,129,0.0,1.0,87,0.00,,,0.00,weatherlink.com 1.10,2013-01-02 13:43:00,
2013-01-02 05:58:00,20.3,17.0,30.63,ESE,113,1.0,1.0,87,0.00,,,0.00,weatherlink.com 1.10,2013-01-02 13:58:00,
2013-01-02 06:13:00,20.3,17.0,30.63,East,88,0.0,0.0,87,0.00,,,0.00,weatherlink.com 1.10,2013-01-02 14:13:00,
2013-01-02 06:28:00,20.3,17.0,30.63,East,92,0.0,1.0,87,0.00,,,0.00,weatherlink.com 1.10,2013-01-02 14:28:00,
2013-01-02 06:43:00,20.4,17.0,30.62,East,91,0.0,1.0,87,0.00,,,0.00,weatherlink.com 1.10,2013-01-02 14:43:00,
2013-01-02 06:58:00,20.4,17.0,30.62,East,92,0.0,1.0,87,0.00,,,0.00,weatherlink.com 1.10,2013-01-02 14:58:00,
2013-01-02 07:13:00,20.4,17.0,30.62,East,83,0.0,1.0,87,0.00,,,0.00,weatherlink.com 1.10,2013-01-02 15:13:00,
2013-01-02 07:28:00,20.3,17.0,30.62,East,83,0.0,0.0,87,0.00,,,0.00,weatherlink.com 1.10,2013-01-02 15:28:00,
2013-01-02 07:43:00,20.2,17.0,30.62,East,84,0.0,0.0,87,0.00,,,0.00,weatherlink.com 1.10,2013-01-02 15:43:00,
2013-01-02 07:58:00,20.3,17.0,30.63,East,83,0.0,0.0,87,0.00,,,0.00,weatherlink.com 1.10,2013-01-02 15:58:00,
2013-01-02 08:13:00,20.4,17.0,30.63,SSE,165,0.0,0.0,87,0.00,,,0.00,weatherlink.com 1.10,2013-01-02 16:13:00,
2013-01-02 08:28:00,20.5,17.0,30.63,SE,143,0.0,1.0,87,0.00,,,0.00,weatherlink.com 1.10,2013-01-02 16:28:00,
2013-01-02 08:43:00,20.8,18.0,30.63,SE,131,0.0,1.0,87,0.00,,,0.00,weatherlink.com 1.10,2013-01-02 16:43:00,
2013-01-02 08:58:00,21.1,18.0,30.63,SE,139,0.0,1.0,87,0.00,,,0.00,weatherlink.com 1.10,2013-01-02 16:58:00,
2013-01-02 09:13:00,21.5,18.0,30.63,SE,139,0.0,1.0,87,0.00,,,0.00,weatherlink.com 1.10,2013-01-02 17:13:00,
2013-01-02 09:28:00,21.7,18.0,30.63,SE,138,0.0,1.0,87,0.00,,,0.00,weatherlink.com 1.10,2013-01-02 17:28:00,
2013-01-02 09:43:00,22.2,19.0,30.64,SE,137,0.0,0.0,87,0.00,,,0.00,weatherlink.com 1.10,2013-01-02 17:43:00,
2013-01-02 09:58:00,22.3,19.0,30.64,SE,136,0.0,1.0,87,0.00,,,0.00,weatherlink.com 1.10,2013-01-02 17:58:00,
2013-01-02 10:13:00,22.5,19.0,30.64,SE,136,0.0,0.0,87,0.00,,,0.00,weatherlink.com 1.10,2013-01-02 18:13:00,
2013-01-02 10:28:00,22.7,19.0,30.64,SE,136,0.0,0.0,87,0.00,,,0.00,weatherlink.com 1.10,2013-01-02 18:28:00,
2013-01-02 10:43:00,22.7,19.0,30.64,NNW,330,0.0,1.0,87,0.00,,,0.00,weatherlink.com 1.10,2013-01-02 18:43:00,
2013-01-02 10:58:00,22.9,20.0,30.63,NNW,330,0.0,1.0,87,0.00,,,0.00,weatherlink.com 1.10,2013-01-02 18:58:00,
2013-01-02 11:13:00,22.9,20.0,30.63,NNW,329,0.0,1.0,87,0.00,,,0.00,weatherlink.com 1.10,2013-01-02 19:13:00,
2013-01-02 11:28:00,23.1,20.0,30.63,NNE,25,0.0,1.0,86,0.00,,,0.00,weatherlink.com 1.10,2013-01-02 19:28:00,
2013-01-02 11:43:00,23.1,20.0,30.63,NE,46,2.0,2.0,86,0.00,,,0.00,weatherlink.com 1.10,2013-01-02 19:43:00,
2013-01-02 11:58:00,22.9,19.0,30.62,NW,326,0.0,2.0,86,0.00,,,0.00,weatherlink.com 1.10,2013-01-02 19:58:00,
2013-01-02 12:13:00,22.9,19.0,30.61,NNE,30,0.0,3.0,85,0.00,,,0.00,weatherlink.com 1.10,2013-01-02 20:13:00,
2013-01-02 12:28:00,23.2,20.0,30.61,East,82,0.0,1.0,86,0.00,,,0.00,weatherlink.com 1.10,2013-01-02 20:28:00,
2013-01-02 12:43:00,23.3,19.0,30.61,ESE,121,0.0,2.0,84,0.00,,,0.00,weatherlink.com 1.10,2013-01-02 20:43:00,
2013-01-02 12:58:00,23.5,19.0,30.60,ENE,78,0.0,3.0,84,0.00,,,0.00,weatherlink.com 1.10,2013-01-02 20:58:00,
2013-01-02 13:13:00,23.5,19.0,30.60,North,360,2.0,3.0,82,0.00,,,0.00,weatherlink.com 1.10,2013-01-02 21:13:00,
2013-01-02 13:28:00,23.5,19.0,30.60,East,91,2.0,5.0,81,0.00,,,0.00,weatherlink.com 1.10,2013-01-02 21:28:00,
2013-01-02 13:43:00,23.8,19.0,30.59,NNW,346,2.0,2.0,81,0.00,,,0.00,weatherlink.com 1.10,2013-01-02 21:43:00,
2013-01-02 13:58:00,23.7,18.0,30.60,NNW,340,1.0,4.0,79,0.00,,,0.00,weatherlink.com 1.10,2013-01-02 21:58:00,
2013-01-02 14:13:00,23.6,18.0,30.60,ENE,60,1.0,5.0,78,0.00,,,0.00,weatherlink.com 1.10,2013-01-02 22:13:00,
2013-01-02 14:28:00,23.6,18.0,30.60,NNE,27,2.0,5.0,79,0.00,,,0.00,weatherlink.com 1.10,2013-01-02 22:28:00,
2013-01-02 14:43:00,23.5,18.0,30.60,SSE,153,0.0,3.0,79,0.00,,,0.00,weatherlink.com 1.10,2013-01-02 22:43:00,
2013-01-02 14:58:00,23.4,18.0,30.60,NNE,26,1.0,5.0,79,0.00,,,0.00,weatherlink.com 1.10,2013-01-02 22:58:00,
2013-01-02 15:13:00,23.5,18.0,30.60,NNE,23,1.0,6.0,78,0.00,,,0.00,weatherlink.com 1.10,2013-01-02 23:13:00,
2013-01-02 15:28:00,23.4,18.0,30.60,North,8,0.0,3.0,79,0.00,,,0.00,weatherlink.com 1.10,2013-01-02 23:28:00,
2013-01-02 15:43:00,22.9,17.0,30.59,NNE,33,0.0,2.0,79,0.00,,,0.00,weatherlink.com 1.10,2013-01-02 23:43:00,
2013-01-02 15:58:00,22.3,17.0,30.59,North,350,0.0,4.0,80,0.00,,,0.00,weatherlink.com 1.10,2013-01-02 23:58:00,
2013-01-02 16:13:00,22.4,17.0,30.59,ENE,69,4.0,5.0,79,0.00,,,0.00,weatherlink.com 1.10,2013-01-03 00:13:00,
2013-01-02 16:28:00,21.8,17.0,30.58,NE,53,0.0,4.0,80,0.00,,,0.00,weatherlink.com 1.10,2013-01-03 00:28:00,
2013-01-02 16:43:00,21.9,17.0,30.58,East,101,1.0,4.0,80,0.00,,,0.00,weatherlink.com 1.10,2013-01-03 00:43:00,
2013-01-02 16:58:00,21.1,16.0,30.59,South,188,0.0,1.0,81,0.00,,,0.00,weatherlink.com 1.10,2013-01-03 00:58:00,
2013-01-02 17:13:00,20.7,16.0,30.59,SE,143,0.0,1.0,82,0.00,,,0.00,weatherlink.com 1.10,2013-01-03 01:13:00,
2013-01-02 17:28:00,20.4,16.0,30.58,ESE,122,0.0,1.0,82,0.00,,,0.00,weatherlink.com 1.10,2013-01-03 01:28:00,
2013-01-02 17:44:00,20.8,16.0,30.58,SE,141,0.0,3.0,82,0.00,,,0.00,weatherlink.com 1.10,2013-01-03 01:44:00,
2013-01-02 17:59:00,20.5,16.0,30.58,SE,143,2.0,3.0,82,0.00,,,0.00,weatherlink.com 1.10,2013-01-03 01:59:00,
2013-01-02 18:14:00,20.4,16.0,30.58,SE,127,0.0,3.0,82,0.00,,,0.00,weatherlink.com 1.10,2013-01-03 02:14:00,
2013-01-02 18:29:00,20.4,16.0,30.58,SE,146,2.0,3.0,82,0.00,,,0.00,weatherlink.com 1.10,2013-01-03 02:29:00,
2013-01-02 18:44:00,20.2,16.0,30.57,SE,143,1.0,2.0,82,0.00,,,0.00,weatherlink.com 1.10,2013-01-03 02:44:00,
2013-01-02 18:59:00,20.1,16.0,30.57,SE,141,0.0,2.0,83,0.00,,,0.00,weatherlink.com 1.10,2013-01-03 02:59:00,
2013-01-02 19:14:00,19.9,16.0,30.57,SE,136,1.0,3.0,84,0.00,,,0.00,weatherlink.com 1.10,2013-01-03 03:14:00,
2013-01-02 19:29:00,19.7,16.0,30.57,SE,143,1.0,3.0,85,0.00,,,0.00,weatherlink.com 1.10,2013-01-03 03:29:00,
2013-01-02 19:44:00,19.8,16.0,30.57,SE,142,1.0,3.0,85,0.00,,,0.00,weatherlink.com 1.10,2013-01-03 03:44:00,
2013-01-02 19:59:00,19.7,16.0,30.56,SE,142,0.0,3.0,85,0.00,,,0.00,weatherlink.com 1.10,2013-01-03 03:59:00,
2013-01-02 20:14:00,19.7,16.0,30.56,SE,142,0.0,1.0,86,0.00,,,0.00,weatherlink.com 1.10,2013-01-03 04:14:00,
2013-01-02 20:29:00,19.5,16.0,30.56,SE,141,0.0,1.0,86,0.00,,,0.00,weatherlink.com 1.10,2013-01-03 04:29:00,
2013-01-02 20:44:00,19.5,16.0,30.56,SE,146,0.0,2.0,85,0.00,,,0.00,weatherlink.com 1.10,2013-01-03 04:44:00,
2013-01-02 20:59:00,19.4,16.0,30.55,SE,142,1.0,2.0,85,0.00,,,0.00,weatherlink.com 1.10,2013-01-03 04:59:00,
2013-01-02 21:15:00,19.3,16.0,30.55,SE,142,0.0,0.0,86,0.00,,,0.00,weatherlink.com 1.10,2013-01-03 05:15:00,
2013-01-02 21:29:00,19.1,16.0,30.55,SE,142,0.0,0.0,86,0.00,,,0.00,weatherlink.com 1.10,2013-01-03 05:29:00,
2013-01-02 21:44:00,18.1,14.0,30.55,SE,142,0.0,0.0,85,0.00,,,0.00,weatherlink.com 1.10,2013-01-03 05:44:00,
2013-01-02 21:59:00,18.4,15.0,30.55,SE,142,0.0,1.0,87,0.00,,,0.00,weatherlink.com 1.10,2013-01-03 05:59:00,
2013-01-02 22:14:00,18.8,15.0,30.54,SE,142,1.0,2.0,86,0.00,,,0.00,weatherlink.com 1.10,2013-01-03 06:14:00,
2013-01-02 22:29:00,18.9,15.0,30.54,SE,143,0.0,1.0,85,0.00,,,0.00,weatherlink.com 1.10,2013-01-03 06:29:00,
2013-01-02 22:44:00,18.5,15.0,30.53,SE,142,0.0,0.0,86,0.00,,,0.00,weatherlink.com 1.10,2013-01-03 06:44:00,
2013-01-02 22:59:00,18.7,15.0,30.53,SE,142,0.0,0.0,86,0.00,,,0.00,weatherlink.com 1.10,2013-01-03 06:59:00,
2013-01-02 23:14:00,18.4,15.0,30.53,SE,145,0.0,1.0,86,0.00,,,0.00,weatherlink.com 1.10,2013-01-03 07:14:00,
2013-01-02 23:29:00,18.0,15.0,30.53,SE,145,0.0,1.0,87,0.00,,,0.00,weatherlink.com 1.10,2013-01-03 07:29:00,
2013-01-02 23:44:00,18.1,15.0,30.52,SSE,148,0.0,1.0,88,0.00,,,0.00,weatherlink.com 1.10,2013-01-03 07:44:00,
2013-01-02 23:59:00,18.1,15.0,30.52,SSE,148,0.0,0.0,88,0.00,,,0.00,weatherlink.com 1.10,2013-01-03 07:59:00,